This demonstration page uses our WeatherBlox Daily Observations layout. Learn more.

Left ArrowRight Arrow

Hourly Observations for September 19, 2021

Temp ( °F °C ) Dew Point ( °F °C ) Humidity (%) Winds ( mph kmh ) Pressure ( in mb ) Visibility ( mi km ) Precip ( " mm )
12:53 am 00:53 Clear 75 23.9 56 13.3 52 52 SSE 6 9 29.93 1014 10 16 0.00 0.00
1:53 am 01:53 Clear 73 22.8 56 13.3 55 55 SE 3 6 29.92 1013 10 16 0.00 0.00
2:53 am 02:53 Clear 70 21.1 55 12.8 59 59 NE 6 9 29.91 1013 10 16 0.00 0.00
3:53 am 03:53 Clear 68 20 55 12.8 63 63 ENE 6 9 29.90 1013 10 16 0.00 0.00
4:53 am 04:53 Clear 68 20 57 13.9 68 68 E 6 9 29.87 1012 10 16 0.00 0.00
5:53 am 05:53 Clear 68 20 58 14.4 70 70 E 6 9 29.88 1012 10 16 0.00 0.00
6:53 am 06:53 Clear 66 18.9 58 14.4 75 75 E 5 7 29.88 1012 10 16 0.00 0.00
7:53 am 07:53 Sunny 66 18.9 58 14.4 75 75 E 5 7 29.89 1012 10 16 0.00 0.00
8:53 am 08:53 Sunny 73 22.8 59 15 62 62 SE 8 13 29.90 1013 10 16 0.00 0.00
9:53 am 09:53 Sunny 78 25.6 59 15 52 52 SE 10 17 29.90 1013 10 16 0.00 0.00
10:53 am 10:53 Sunny 83 28.3 58 14.4 43 43 SSE 9 15 29.90 1013 10 16 0.00 0.00
11:53 am 11:53 Sunny 87 30.6 57 13.9 36 36 S 8 13 29.89 1012 10 16 0.00 0.00
12:53 pm 12:53 Sunny 91 32.8 55 12.8 30 30 S 9 15 29.86 1011 10 16 0.00 0.00
1:53 pm 13:53 Sunny 93 33.9 51 10.6 24 24 undefined N/A 29.83 1010 10 16 0.00 0.00
2:53 pm 14:53 Sunny 95 35 47 8.3 19 19 undefined N/A 29.79 1009 10 16 0.00 0.00
3:53 pm 15:53 Sunny 97 36.1 43 6.1 16 16 SSW 8 13 29.76 1008 10 16 0.00 0.00
4:53 pm 16:53 Sunny 97 36.1 44 6.7 16 16 undefined N/A 29.74 1007 10 16 0.00 0.00
5:53 pm 17:53 Sunny 97 36.1 42 5.6 15 15 Calm 29.73 1007 10 16 0.00 0.00
6:53 pm 18:53 Sunny 96 35.6 40 4.4 14 14 SE 9 15 29.72 1007 10 16 0.00 0.00
7:53 pm 19:53 Sunny 92 33.3 40 4.4 16 16 SE 8 13 29.72 1007 10 16 0.00 0.00
8:53 pm 20:53 Clear 87 30.6 42 5.6 21 21 SE 13 20 29.72 1007 10 16 0.00 0.00
9:53 pm 21:53 Clear 85 29.4 44 6.7 24 24 SE 12 19 29.73 1007 10 16 0.00 0.00
10:53 pm 22:53 Clear 83 28.3 45 7.2 26 26 SE 12 19 29.74 1007 10 16 0.00 0.00
11:53 pm 23:53 Clear 81 27.2 48 8.9 32 32 SSE 13 20 29.74 1007 10 16 0.00 0.00

Powered by AerisWeather